Regional Weather Roundup
Issued by NWS Jackson, KY

Home | Current Version | Previous Version | Text Only | Print | Product List | Glossary On
Versions: 1 2 3 4 5 6 7 8 9 10 11 12 13 14 15 16 17 18 19 20 21 22 23 24 25 26 27 28 29 30 31 32 33 34 35 36 37 38 39 40 41 42 43 44 45 46 47 48 49 50
000
ASUS43 KJKL 301810
RWRJKL

EAST KENTUCKY HOURLY WEATHER ROUNDUP
NATIONAL WEATHER SERVICE JACKSON KY
200 PM EDT SAT MAY 30 2015

NOTE: "FAIR" INDICATES FEW OR NO CLOUDS BELOW 12,000 FEET WITH
NO SIGNIFICANT WEATHER AND/OR OBSTRUCTIONS TO VISIBILITY.

* THESE REPORTS ARE NOT UNDER NWS QUALITY CONTROL AND MAY NOT
  REPORT WEATHER SUCH AS PRECIPITATION AND FOG.

KYZ079-080-083-085-087-088-110-112-115-119-120-301900
...EASTERN KENTUCKY...

CITY           SKY/WX    TMP DP  RH WIND       PRES   REMARKS
JACKSON        MOSUNNY   81  60  48 MISG      30.13F
6HR MIN TEMP:  69; 6HR MAX TEMP:  82;

LONDON         PTSUNNY   83  59  44 S10       30.13F
6HR MIN TEMP:  69; 6HR MAX TEMP:  83; 6HR PCP:  0.06;

SOMERSET*      PTSUNNY   79  63  57 S12       30.12F
MONTICELLO*    MOSUNNY   82  66  58 S15       30.13F
6HR MIN TEMP:  72; 6HR MAX TEMP:  83;

MIDDLESBORO*   MOSUNNY   82  60  48 S8        30.15F
6HR MIN TEMP:  66; 6HR MAX TEMP:  83;

HARLAN APT*    CLEAR     82  55  39 CALM      30.16F
HAZARD APT*    MOCLDY    84  57  39 S3        30.12F
BLACK MTN*       N/A     73  59  60 S5          N/A
PIKEVILLE APT* MOSUNNY   82  61  47 W5        30.14F
BIG SANDY*     MOCLDY    84  61  46 SW6       30.13F
6HR MIN TEMP:  72; 6HR MAX TEMP:  84;

MOREHEAD APT*  CLEAR     81  66  61 SE8       30.12F
$$

KYZ035-036-041-042-044-050-067-078-099-301900
...CENTRAL KENTUCKY...

CITY           SKY/WX    TMP DP  RH WIND       PRES   REMARKS
MT STERLING*   CLOUDY    81  66  61 SW7       30.11F
FLEMING/MASON* MOSUNNY   82  66  57 SW13G20   30.08F
DANVILLE*      PTSUNNY   82  64  54 S10G18    30.09F
RICHMOND*      MOSUNNY   81  63  54 S12G17    30.10F
LEXINGTON      MOSUNNY   83  67  58 S13       30.07F
6HR MIN TEMP:  71; 6HR MAX TEMP:  83;

FRANKFORT        N/A     82  66  58 SW13      30.04F
6HR MIN TEMP:  71; 6HR MAX TEMP:  84;

$$

KYZ091>093-OHZ055-061-077-WVZ005-015-034-035-042-301900
...SOUTHERN OHIO/WEST VIRGINIA...

CITY           SKY/WX    TMP DP  RH WIND       PRES   REMARKS
COVINGTON      PTSUNNY   82  65  56 S18       30.04F
COLUMBUS       MOSUNNY   84  65  52 SW13G22   30.03F
DAYTON         PTSUNNY   84  66  54 S13G23    30.02F
WILMINGTON     SUNNY     85  63  47 SW16      30.03F
HUNTINGTON     MOSUNNY   84  63  49 SW9       30.09F
CHARLESTON     PTSUNNY   79  66  64 SE6       30.11F
PINEVILLE*     MOSUNNY   83  61  47 MISG      30.20F
BECKLEY        MOSUNNY   80  59  48 VRB7      30.20F
BLUEFIELD      CLOUDY    77  58  51 S9G16     30.23F
$$

VAZ002-007-008-TNZ017-027-036-066-071-301900
...SOUTHWEST VIRGINIA/EAST TENNESSEE...

CITY           SKY/WX    TMP DP  RH WIND       PRES   REMARKS
WISE*          PTSUNNY   77  54  44 S6        30.23F
JONESVILLE*    MOCLDY    81  59  47 SW5       30.18F
ABINGDON*      PTSUNNY   82  54  38 W7        30.19F
BRISTOL        MOSUNNY   84  55  36 S7        30.16F
KNOXVILLE      MOSUNNY   83  59  44 SW10      30.13F
OAK RIDGE      MOSUNNY   86  60  41 MISG      30.15F
CROSSVILLE     PTSUNNY   77  59  53 S12G21    30.17F
NASHVILLE      LGT RAIN  73  70  88 S9        30.08F
$$

...KEY TO REMARKS...
VSB - VISIBILITY IN MILES
WCI - WIND CHILL INDEX
HX  - HEAT INDEX

$$



USA.gov is the U.S. government's official web portal to all federal, state and local government web resources and services.